Malaga, WA

11:25 AM PDT on September 28, 2016 (GMT -0700)
Pangborn Memorial

Weather History for KEAT - October, 2013

Change the Weather History Date:

Wednesday, October 2, 2013

  Actual Average Record
Temperature  
Mean Temperature 47 °F 51 °F  
Max Temperature 53 °F 65 °F 83 °F (1988)
Min Temperature 41 °F 37 °F 31 °F (2014)
Degree Days  
Heating Degree Days 18 14  
Month to date heating degree days 34 27  
Since 1 July heating degree days 130 383  
Cooling Degree Days 0 0  
Month to date cooling degree days 0 0  
Year to date cooling degree days 1028 249  
Moisture  
Dew Point 38 °F    
Average Humidity 74    
Maximum Humidity 93    
Minimum Humidity 54    
Precipitation  
Precipitation T in 0.03 in 0.47 in (1967)
Month to date precipitation T 0.05  
Year to date precipitation 6.69 11.10  
Snow  
Snow 0.00 in 0.00 in - ()
Month to date snowfall 0.0  
Since 1 July snowfall 0.0  
Since 1 September snowfall 0.0  
Snow Depth -    
Sea Level Pressure  
Sea Level Pressure 30.10 in    
Wind  
Wind Speed 4 mph (West)    
Max Wind Speed 10 mph    
Max Gust Speed 13 mph    
Visibility 10 miles    
Events Rain    
T = Trace of Precipitation, MM = Missing Value Source: NWS Daily Summary

Daily Weather History Graph

Daily Weather History Graph

Search for Another Location

Airport or City:

Trip Planner

Search our weather history database for the weather conditions in past years. The results will help you decide how hot, cold, wet, or windy it might be!

Date:

Astronomy

Oct. 02, 2013 Rise Set
Actual Time 7:01 AM PDT 6:37 PM PDT
Civil Twilight 6:31 AM PDT 7:08 PM PDT
Nautical Twilight 5:55 AM PDT 7:43 PM PDT
Astronomical Twilight 5:19 AM PDT 8:19 PM PDT
Moon 4:32 AM PDT (10/2) 5:21 PM PDT (10/2)
Length of Visible Light 12h 37m
Length of Day
11h 35m
Waning Crescent, 6% of the Moon is Illuminated
Oct 2
Waning Crescent
Oct 4
New
Oct 11
First Quarter
Oct 18
Full
Oct 26
Last Quarter

Hourly Weather History & Observations

Time (PDT) Temp. Windchill Dew Point Humidity Pressure Visibility Wind Dir Wind Speed Gust Speed Precip Events Conditions
12:55 AM 44.1 °F - 34.0 °F 68% 30.11 in 10.0 mi Calm Calm - N/A   Clear
1:55 AM 43.0 °F 41.3 °F 35.1 °F 74% 30.11 in 10.0 mi South 3.5 mph - N/A   Clear
2:55 AM 42.1 °F 40.2 °F 36.0 °F 79% 30.11 in 10.0 mi ENE 3.5 mph - N/A   Clear
3:55 AM 44.1 °F - 35.1 °F 71% 30.11 in 10.0 mi Calm Calm - N/A   Clear
4:55 AM 43.0 °F - 35.1 °F 74% 30.11 in 10.0 mi Calm Calm - N/A   Partly Cloudy
5:55 AM 43.0 °F - 37.0 °F 80% 30.11 in 10.0 mi Calm Calm - N/A   Overcast
6:55 AM 42.1 °F - 37.0 °F 82% 30.11 in 10.0 mi Calm Calm - N/A   Overcast
7:55 AM 43.0 °F - 37.9 °F 82% 30.11 in 10.0 mi Calm Calm - N/A   Overcast
8:55 AM 44.1 °F 42.5 °F 39.0 °F 82% 30.12 in 10.0 mi SE 3.5 mph - N/A   Scattered Clouds
9:55 AM 46.0 °F 42.5 °F 35.1 °F 66% 30.13 in 10.0 mi ESE 6.9 mph - N/A   Overcast
10:55 AM 46.9 °F - 35.1 °F 63% 30.13 in 10.0 mi SE 4.6 mph - N/A   Mostly Cloudy
11:55 AM 48.0 °F - 36.0 °F 63% 30.11 in 10.0 mi Calm Calm - 0.00 in Rain Light Rain
12:55 PM 50.0 °F - 37.9 °F 63% 30.09 in 10.0 mi Calm Calm - 0.00 in   Partly Cloudy
1:55 PM 52.0 °F - 37.9 °F 59% 30.06 in 10.0 mi Calm Calm - N/A   Partly Cloudy
2:55 PM 52.0 °F - 37.9 °F 59% 30.06 in 10.0 mi NW 3.5 mph - N/A   Mostly Cloudy
3:55 PM 52.0 °F - 37.0 °F 57% 30.05 in 10.0 mi West 5.8 mph - N/A   Overcast
4:55 PM 53.1 °F - 37.9 °F 57% 30.05 in 10.0 mi West 5.8 mph - N/A   Partly Cloudy
5:55 PM 52.0 °F - 39.0 °F 61% 30.05 in 10.0 mi West 4.6 mph - N/A   Overcast
6:55 PM 51.1 °F - 39.9 °F 66% 30.07 in 10.0 mi West 4.6 mph - N/A   Overcast
7:55 PM 50.0 °F - 41.0 °F 71% 30.08 in 10.0 mi West 5.8 mph - N/A   Overcast
8:55 PM 48.9 °F - 43.0 °F 80% 30.09 in 10.0 mi WNW 9.2 mph - N/A   Overcast
9:55 PM 46.9 °F - 43.0 °F 86% 30.11 in 10.0 mi WNW 8.1 mph - 0.00 in   Overcast
10:55 PM 46.9 °F - 44.1 °F 90% 30.12 in 10.0 mi WNW 8.1 mph - N/A   Overcast
11:55 PM 46.9 °F - 43.0 °F 86% 30.13 in 10.0 mi WNW 6.9 mph - N/A   Overcast